Retour au catalogue

STARLINK-36257

ActifCommunicationsSSO
NORAD 67903·PAYLOAD·🇺🇸 United States

Lancé Feb 21, 2026 depuis Vandenberg Space Force Base

Loading…

Prochains Passages (prochaines 24 heures)

TLE

FraisSource: CelesTrak SupGP

Époque: Sep 15, 2026, 02:52 UTC

1 67903C 26035AA  26258.11993056  .00080694  00000+0  25048-2 0  2583
2 67903  97.2851 190.0120 0001701  91.3190   3.9148 15.33399838    12

Suivez STARLINK-36257 en temps réel avec AllMySat

Download on the App Store